Weather observations for the past three days for
St. Louis Regional Airport
Imperial (Metric)
Date Time (cdt) Wind (mph) Vis. (mi.) Weather Sky Cond. Temperature (ºF) Relative Humidity Wind Chill (°F) Heat Index (°F) Pressure Precipitation (in)
Air Dwpt 6 hour altimeter (in) sea level (mb) 1 hr 3 hr 6 hr
Max. Min.
18 14:50 N 10 G 17 10.00 Mostly Cloudy SCT048 BKN065 77 55.4 47% 79 30.18 0.0
18 13:50 N 9 10.00 Mostly Cloudy BKN055 75.2 57.2 54% 78 30.18 0.0
18 12:50 N 7 10.00 Mostly Cloudy BKN055 75.2 55.4 50% 78 30.19 0.0
18 11:50 NE 8 10.00 Mostly Cloudy BKN039 75.2 57.2 54% 78 30.19 0.0
18 10:50 E 9 10.00 A Few Clouds FEW050 75.2 57.2 54% 78 30.19 0.0
18 09:50 E 9 10.00 A Few Clouds FEW050 73.4 55.4 53% 30.19 0.0
18 08:50 E 9 10.00 A Few Clouds FEW050 69.8 57.2 64% 30.17 0.0
18 07:50 NE 9 10.00 A Few Clouds FEW040 66.2 60.8 83% 30.16 0.0
18 06:50 Vrbl 5 10.00 A Few Clouds FEW030 62.6 59 88% 30.15 0.0
18 06:35 Calm 10.00 Fair CLR 61.2 59.2 93% 30.15 0.0
18 06:15 Calm 10.00 Fair CLR 60.8 59 94% 30.15 0.0
18 05:55 Calm 10.00 Fair CLR 61.2 59 93% 30.15 0.0
18 05:35 Calm 10.00 Fair CLR 61.7 59 91% 30.13 0.0
18 05:15 Calm 10.00 Fair CLR 61.3 59.4 93% 30.13 0.0
18 04:55 Calm 10.00 Fair CLR 61.7 59.4 92% 30.12 0.0
18 04:35 Calm 10.00 Fair CLR 62.1 59.4 91% 30.11 0.0
18 04:15 Calm 10.00 Fair CLR 62.4 59.7 91% 30.11 0.0
18 03:55 Calm 10.00 Fair CLR 62.8 59.5 89% 30.11 0.0
18 03:35 Calm 10.00 Fair CLR 63 59.9 90% 30.1 0.0
18 03:15 Calm 10.00 Fair CLR 63 60.4 92% 30.1 0.0
18 02:55 Calm 10.00 Fair CLR 63.5 60.3 89% 30.1 0.0
18 02:35 Calm 10.00 Fair CLR 63.9 60.1 88% 30.1 0.0
18 02:15 Calm 10.00 Fair CLR 64.4 60.1 86% 30.1 0.0
18 01:55 Calm 10.00 Fair CLR 64.8 60.1 85% 30.1 0.0
18 01:35 Calm 10.00 Fair CLR 65.3 60.4 84% 30.1 0.0
18 01:15 Calm 10.00 Fair CLR 66.2 60.3 81% 30.1 0.0
18 00:55 Calm 10.00 Fair CLR 66.4 60.8 79.9 66.4 82% 30.11 0.0
18 00:35 Calm 10.00 Fair CLR 67.1 60.8 80% 30.11 0.0
18 00:15 Calm 10.00 Fair CLR 68 60.3 76% 30.11 0.0
17 23:55 Calm 10.00 Fair CLR 68 60.3 76% 30.11 0.0
17 23:35 Calm 10.00 Fair CLR 66.7 61.5 83% 30.11 0.0
17 23:15 Calm 10.00 Fair CLR 67.3 61.3 81% 30.1 0.0
17 22:55 Calm 10.00 Fair CLR 69.4 60.6 74% 30.1 0.0
17 22:35 Calm 10.00 Fair CLR 70 60.4 72% 30.09 0.0
17 22:15 Calm 10.00 Fair CLR 69.8 61 74% 30.09 0.0
17 21:50 N 7 10.00 Fair CLR 69.8 60.8 73% 30.08 0.0
17 20:50 N 7 10.00 Fair CLR 73.4 59 61% 30.06 0.0
17 19:50 N 12 10.00 Fair CLR 77 59 54% 79 30.03 0.0
17 18:50 N 14 10.00 Fair CLR 80.6 59 48% 81 30.01 0.0
17 17:50 N 13 10.00 Fair CLR 80.6 60.8 51% 81 29.99 0.0
17 16:50 N 15 G 21 10.00 Fair CLR 82.4 60.8 48% 83 29.99 0.0
17 15:50 N 17 G 22 10.00 A Few Clouds FEW050 82.4 62.6 51% 83 29.99 0.0
17 14:50 N 10 10.00 Partly Cloudy SCT040 82.4 66.2 58% 85 30.01 0.0
17 13:50 N 9 10.00 Partly Cloudy SCT040 82.4 64.4 55% 84 30.02 0.0
17 12:50 N 9 10.00 Partly Cloudy SCT037 82.4 66.2 58% 85 30.02 0.0
17 11:50 N 8 10.00 Partly Cloudy SCT033 82.4 68 62% 85 30.02 0.0
17 10:50 Vrbl 5 10.00 Partly Cloudy SCT025 80.6 69.8 70% 84 30.01 0.0
17 09:50 Vrbl 5 10.00 Partly Cloudy SCT027 78.8 69.8 74% 81 30 0.0
17 08:50 Vrbl 5 10.00 A Few Clouds FEW030 75.2 69.8 83% 75 29.98 0.0
17 07:50 N 7 10.00 Fair CLR 73.4 69.8 89% 29.97 0.0
17 06:50 Vrbl 3 10.00 Fair CLR 69.8 69.8 100% 29.95 0.0
17 06:35 Calm 7.00 Fair CLR 69.8 69.3 98% 29.95 0.0
17 06:15 Calm 7.00 Fair CLR 68.4 68 99% 29.95 0.0
17 05:55 Calm 7.00 Fair CLR 68.9 68.4 98% 29.94 0.0
17 05:35 Calm 7.00 Fair CLR 69.3 68.9 99% 29.93 0.0
17 05:15 Calm 10.00 Fair CLR 70 69.6 99% 29.93 0.0
17 04:55 Calm 10.00 Fair CLR 69.8 69.4 99% 29.93 0.0
17 04:35 Calm 10.00 Fair CLR 69.8 69.1 98% 29.92 0.0
17 04:15 Calm 10.00 Fair CLR 69.6 69.1 98% 29.92 0.0
17 03:55 Calm 10.00 Fair CLR 69.3 68.9 99% 29.92 0.0
17 03:35 Calm 10.00 Fair CLR 68.7 68.2 98% 29.92 0.0
17 03:15 Calm 10.00 Fair CLR 70.3 70 99% 29.91 0.0
17 02:55 Calm 7.00 Fair CLR 69.6 69.1 98% 29.91 0.0
17 02:35 Calm 7.00 Fair CLR 69.1 68.7 99% 29.91 0.0
17 02:15 Calm 5.00 Fog/Mist CLR 68.9 68.5 99% 29.91 0.0
17 01:55 Calm 3.00 Fog/Mist CLR 68.2 67.6 98% 29.91 0.0
17 01:35 Calm 1.00 Fog/Mist VV007 68.9 68.5 99% 29.91 0.0
17 01:15 Calm 4.00 Fog/Mist CLR 69.3 68.9 99% 29.91 0.0
17 00:55 Calm 7.00 Fair CLR 70 69.6 76.5 68.9 99% 29.91 0.0
17 00:35 Calm 10.00 Fair CLR 69.6 69.1 98% 29.91 0.0
17 00:15 Calm 7.00 Fair CLR 69.1 68.9 99% 29.91 0.0
16 23:55 Calm 10.00 Fair CLR 69.3 68.9 99% 29.91 0.0
16 23:35 Calm 10.00 Fair CLR 69.4 69.1 99% 29.92 0.0
16 23:15 Calm 10.00 Fair CLR 70 69.6 99% 29.93 0.0
16 22:55 Calm 7.00 Fair CLR 70.2 69.8 99% 29.93 0.0
16 22:35 Calm 10.00 Fair CLR 70.7 70.2 98% 29.94 0.0
16 22:15 Calm 10.00 Fair CLR 70.7 70.2 98% 29.95 0.0
16 21:50 Vrbl 5 10.00 Fair CLR 69.8 69.8 100% 29.94 0.0
16 20:50 Calm 10.00 Fair CLR 71.6 71.6 100% 29.9 0.0
16 19:50 NW 6 10.00 Fair CLR 75.2 69.8 83% 75 29.91 0.0
16 18:50 NW 8 10.00 Fair CLR 77 68 74% 79 29.89 0.0
16 17:50 NW 12 10.00 Fair CLR 77 68 74% 79 29.87 0.0
16 16:50 SW 12 10.00 Partly Cloudy SCT110 75.2 71.6 89% 75 29.83 0.0
16 15:50 E 10 10.00 A Few Clouds FEW050 75.2 73.4 94% 74 29.78 0.0
16 14:50 SE 8 10.00 Light Rain BKN032 BKN048 73.4 71.6 94% 29.98 0.0
16 13:50 SW 15 7.00 Rain BKN035 OVC110 71.6 69.8 94% 30 0.0
16 12:50 S 18 G 26 10.00 Light Rain SCT010 BKN028 OVC080 69.8 69.8 100% 29.97 0.0
16 11:50 SW 13 G 23 4.00 Thunderstorm Rain Fog/Mist SCT022 BKN070 OVC090 69.8 69.8 100% 30 0.0
16 10:50 S 16 G 26 5.00 Thunderstorm in Vicinity Rain SCT013 BKN050 OVC095 71.6 71.6 100% 29.85 0.0
16 09:50 S 16 G 25 10.00 Mostly Cloudy SCT017 BKN055 BKN075 73.4 73.4 100% 29.85 0.0
16 08:50 S 15 4.00 Light Rain Fog/Mist SCT017 BKN060 OVC110 71.6 71.6 100% 29.88 0.0
16 07:50 Vrbl 7 10.00 Overcast BKN006 OVC046 71.6 71.6 100% 29.9 0.0
16 06:54 SE 16 G 21 4.00 Thunderstorm Light Rain SCT021 BKN035 OVC044 71.6 69.8 94% 29.85 0.0
16 06:35 SE 8 10.00 Thunderstorm Light Rain SCT034 OVC043 71.2 70.7 98% 29.86 0.0 0.01
16 06:15 E 9 10.00 Light Rain SCT036 SCT050 OVC070 71.6 70.5 96% 29.85 0.0
16 05:55 E 12 G 16 10.00 Overcast SCT035 BKN046 OVC070 71.6 70 95% 29.84 0.0
16 05:35 Calm 10.00 Overcast SCT028 BKN034 OVC040 71.6 69.8 94% 29.86 0.0
16 05:15 E 16 10.00 Light Rain SCT018 BKN026 OVC035 71.8 70 94% 29.85 0.0
16 04:55 E 14 G 17 10.00 Mostly Cloudy BKN018 BKN050 BKN080 72 70.2 94% 29.85 0.0 0.01
16 04:35 E 10 G 16 10.00 Mostly Cloudy SCT080 BKN100 72 70.9 96% 29.84 0.0 0.01
16 04:15 NE 8 7.00 Rain BKN080 OVC100 72.9 71.2 95% 29.84 0.0 0.01
16 03:55 E 8 10.00 Thunderstorm in Vicinity SCT015 SCT049 OVC080 73.6 71.1 92% 29.82 0.0 0.02 0.02
16 03:35 E 9 7.00 Thunderstorm Light Rain SCT015 BKN080 OVC110 74.7 71.1 89% 29.82 0.0 0.02
16 03:15 Calm 10.00 Thunderstorm BKN080 BKN110 76.1 71.4 86% 77 29.82 0.0
16 02:55 Calm 10.00 Partly Cloudy SCT100 76.8 72.1 86% 78 29.82 0.0
16 02:35 E 12 10.00 Partly Cloudy SCT100 78.3 75.4 91% 81 29.83 0.0
16 02:15 Calm 10.00 Mostly Cloudy BKN090 80.1 78.3 94% 86 29.83 0.0
16 01:55 Calm 10.00 Partly Cloudy SCT090 79.9 78.3 95% 86 29.83 0.0
16 01:35 Calm 10.00 Fair CLR 80.2 77.2 90% 86 29.82 0.0
16 01:15 Calm 10.00 Fair CLR 81 75.7 84% 87 29.83 0.0
16 00:55 Calm 10.00 Fair CLR 80.8 75.6 90.5 80.8 84% 87 29.83 0.0
16 00:35 Calm 10.00 Fair CLR 81.9 75.4 81% 89 29.84 0.0
16 00:15 Calm 10.00 Fair CLR 82.4 75.2 79% 89 29.83 0.0
15 23:55 Calm 10.00 Fair CLR 83.5 75.2 76% 91 29.82 0.0
15 23:35 S 7 10.00 Fair CLR 83.8 75.2 75% 92 29.81 0.0
15 23:15 Calm 10.00 Fair CLR 84.2 75.2 74% 92 29.83 0.0
15 22:55 S 5 10.00 Fair CLR 84.4 75.2 74% 93 29.83 0.0
15 22:35 S 8 10.00 Fair CLR 84.4 75.2 74% 93 29.83 0.0
15 22:15 Calm 10.00 Fair CLR 84.6 74.8 73% 93 29.84 0.0
15 21:50 S 9 10.00 Fair CLR 84.2 75.2 74% 92 29.83 0.0
15 20:50 SW 13 10.00 Fair CLR 87.8 73.4 62% 96 29.83 0.0
15 19:50 SW 15 10.00 Fair CLR 89.6 71.6 55% 96 29.8 0.0
15 18:50 SW 16 10.00 Fair CLR 91.4 71.6 52% 99 29.8 0.0
15 17:50 SW 14 G 20 10.00 Fair CLR 93.2 73.4 53% 103 29.81 0.0
15 16:50 SW 12 10.00 Fair CLR 93.2 75.2 56% 105 29.83 0.0
15 15:50 SW 14 10.00 A Few Clouds FEW050 95 75.2 53% 107 29.84 0.0
Date Time (cdt) Wind (mph) Vis. (mi.) Weather Sky Cond. Air Dwpt Max. Min. Relative Humidity Wind Chill (°F) Heat Index (°F) altimeter (in) sea level (mb) 1 hr 3 hr 6 hr
6 hour
Temperature (ºF) Pressure Precipitation (in)